[Iaude] MPEC J30: 2024 JE [a=1.52,e=0.33,i=11.7,H=24.2]

mpec at cfa.harvard.edu mpec at cfa.harvard.edu
Thu May 2 19:27:58 EDT 2024


M.P.E.C. 2024-J30                                   Issued 2024 May 2, 23:26 UT

     The Minor Planet Electronic Circulars contain information on unusual
         minor planets, routine data on comets and natural satellites,
         and occasional editorial announcements.  They are published
    on behalf of Division F of the International Astronomical Union by the
          Minor Planet Center, Smithsonian Astrophysical Observatory,
                          Cambridge, MA 02138, U.S.A.
			  
             Prepared using the Tamkin Foundation Computer Network

                              MPC at CFA.HARVARD.EDU
            URL https://www.minorplanetcenter.net/    ISSN 1523-6714

                                    2024 JE                                     


Observations:
     K24J00E*1C2024 05 01.45930618 18 19.595+22 30 56.52         18.82GVEJ030G96
     K24J00E 1C2024 05 01.46456218 18 22.126+22 29 05.57         18.99GVEJ030G96
     K24J00E 1C2024 05 01.46981318 18 24.696+22 27 16.20         19.34GVEJ030G96
     K24J00E 1C2024 05 01.48133718 18 30.388+22 23 12.30         19.28GVEJ030G96
     K24J00E 1C2024 05 01.48230518 18 30.884+22 22 51.42         19.28GVEJ030G96
     K24J00E 1C2024 05 01.48327318 18 31.363+22 22 31.30         19.45GVEJ030G96
     K24J00E 1C2024 05 01.48424118 18 31.842+22 22 10.88         19.27GVEJ030G96
     K24J00E KB2024 05 01.75707 18 21 18.30 +20 44 30.4          18.7 GVEJ030P13
     K24J00E KB2024 05 01.76866 18 21 24.06 +20 40 21.5          19.6 GVEJ030P13
     K24J00E KB2024 05 01.78943 18 21 34.61 +20 32 55.0          19.6 GVEJ030P13
     K24J00E KB2024 05 01.81539 18 21 47.62 +20 23 32.9          19.7 GVEJ030P13
     K24J00E KC2024 05 02.40623218 27 33.221+16 44 50.93         18.59GVEJ030I52
     K24J00E KC2024 05 02.40682018 27 33.440+16 44 37.28         19.02GVEJ030I52
     K24J00E KC2024 05 02.40800718 27 34.034+16 44 10.54         19.55GVEJ030I52
     K24J00E !C2024 05 02.45146 18 27 57.01 +16 27 34.5          19.2 GVEJ030673
     K24J00E !C2024 05 02.45262 18 27 57.54 +16 27 07.8                VEJ030673
     K24J00E !C2024 05 02.45315 18 27 57.85 +16 26 55.8                VEJ030673
     K24J00E KC2024 05 02.95402918 32 54.95 +13 12 04.8          18.6 GXEJ030I93
     K24J00E KC2024 05 02.95918518 32 57.75 +13 10 04.9          19.0 GXEJ030I93
     K24J00E KC2024 05 02.96440318 33 00.62 +13 08 02.8          19.0 GXEJ030I93

Observer details:
673 Table Mountain Observatory, Wrightwood.  Observer J. Pittichova.  1.0-m
    f/15 reflector + CCD.
G96 Mt. Lemmon Survey.  Observer J. B. Fazekas.  Measurers T. Beuden, V. F.
    Carvajal, D. Fay, J. B. Fazekas, D. C. Fuls, A. R. Gibbs, A. D. Grauer, H.
    Groeller, J. K. Hogan, R. A. Kowalski, S. M. Larson, G. J. Leonard, D.
    Rankin, R. L. Seaman, F. C. Shelly, K. W. Wierzchos.  1.5-m reflector +
    10K CCD.
I52 Steward Observatory, Mt. Lemmon Station.  Observers V. F. Carvajal, G. J.
    Leonard.  Measurers T. Beuden, V. F. Carvajal, D. Fay, J. B. Fazekas, D.
    C. Fuls, A. R. Gibbs, A. D. Grauer, H. Groeller, J. K. Hogan, R. A.
    Kowalski, S. M. Larson, G. J. Leonard, D. Rankin, R. L. Seaman, F. C.
    Shelly, K. W. Wierzchos.  1.0-m prime focus + CCD.
I93 St Pardon de Conques.  Observer F. Losse.  0.40-m f/3.7 reflector + CCD.
P13 Baihuashan Observatory, Beijing.  Observers Z. Wang, B. Liu.  Measurer Z.
    Wang.  0.28-m f/2.2 reflector + CMO.

Orbital elements:
2024 JE                                                  Earth MOID = 0.0186 AU
Epoch 2024 Mar. 31.0 TT = JDT 2460400.5                 MPC                     
M 346.11545              (2000.0)            P               Q                  
n   0.52369178     Peri.  166.97339     -0.79660175     +0.58423750             
a   1.5243530      Node    49.87837     -0.57123068     -0.64350432             
e   0.3292797      Incl.   11.71145     -0.19779072     -0.49453891             
P   1.88           H   24.27          G   0.15           U   8                  
Residuals in seconds of arc
240501 G96  0.8+  0.2-    240501 P13  0.7+  0.4+    240502 673  0.1+  0.3-
240501 G96  0.0   0.5-    240501 P13  1.1-  0.1+    240502 673  0.5-  0.6-
240501 G96  0.3-  0.7+    240501 P13  0.1-  0.5+    240502 673  0.2+  0.6-
240501 G96  0.2-  0.1+    240501 P13  0.2-  0.3-    240502 I93  0.6+  0.0
240501 G96  0.0   0.3-    240502 I52  0.8+  0.2+    240502 I93  0.1-  0.4+
240501 G96  0.0   0.0     240502 I52  0.2-  0.1-    240502 I93  0.1-  0.0
240501 G96  0.0   0.1+    240502 I52  0.1-  0.0

Ephemeris:
2024 JE                  a,e,i = 1.52, 0.33, 12                  q = 1.0224
Date    TT    R. A. (2000) Decl.     Delta      r    Elong.  Phase     V
2024 04 02    14 40 48.3 +65 27 22   0.1440  1.0497   106.6    65.9    22.5
...
2024 04 17    16 08 20.1 +60 36 00   0.08531 1.0266   103.2    72.2    21.5
...
2024 04 25    17 16 11.6 +48 37 26   0.05554 1.0225   105.8    71.2    20.5
...
2024 05 01    18 13 51.7 +25 09 10   0.03893 1.0233   112.9    65.1    19.6
2024 05 02    18 23 32.8 +19 17 51   0.03730 1.0238   114.4    63.7    19.4
2024 05 03    18 33 09.4 +12 56 55   0.03614 1.0244   115.9    62.3    19.3
...
2024 05 09    19 27 27.2 -25 26 02   0.04041 1.0296   118.8    59.2    19.5
...
2024 05 17    20 25 07.7 -51 37 18   0.06544 1.0415   115.9    60.8    20.6
...
2024 06 01    21 22 21.9 -65 28 16   0.1252  1.0778   117.6    56.5    22.0

A. U. Tomatic                (C) Copyright 2024 MPC           M.P.E.C. 2024-J30





More information about the Iaude mailing list